Quitman, TX

7:58 AM CDT on August 26, 2016 (GMT -0500)
Mineola

Weather History for KJDD - May, 2013

Change the Weather History Date:

Thursday, May 9, 2013

  Actual Average (KTYR) Record (KTYR)
Temperature  
Mean Temperature 68 °F 71 °F  
Max Temperature 73 °F 81 °F 95 °F (1941)
Min Temperature 64 °F 62 °F 43 °F (1980)
Degree Days  
Heating Degree Days 0 0  
Month to date heating degree days 6  
Since 1 July heating degree days 2268  
Cooling Degree Days 4 7  
Month to date cooling degree days 52  
Year to date cooling degree days 164  
Growing Degree Days 18 (Base 50)    
Moisture  
Dew Point 67 °F    
Average Humidity 91    
Maximum Humidity 100    
Minimum Humidity 60    
Precipitation  
Precipitation 0.05 in 0.15 in 4.00 in (1936)
Month to date precipitation 1.40  
Year to date precipitation 15.56  
Snow  
Snow 0.00 in - - ()
Month to date snowfall  
Since 1 July snowfall  
Snow Depth -    
Sea Level Pressure  
Sea Level Pressure 29.95 in    
Wind  
Wind Speed 5 mph (SSE)    
Max Wind Speed 14 mph    
Max Gust Speed 20 mph    
Visibility 6 miles    
Events Rain , Thunderstorm    
T = Trace of Precipitation, MM = Missing Value Source: NWS Daily Summary

Daily Weather History Graph

Daily Weather History Graph

Search for Another Location

Airport or City:

Trip Planner

Search our weather history database for the weather conditions in past years. The results will help you decide how hot, cold, wet, or windy it might be!

Date:

Astronomy

May. 09, 2013 Rise Set
Actual Time 6:27 AM CDT 8:09 PM CDT
Civil Twilight 6:00 AM CDT 8:36 PM CDT
Nautical Twilight 5:28 AM CDT 9:08 PM CDT
Astronomical Twilight 4:54 AM CDT 9:42 PM CDT
Moon 6:11 AM CDT (5/9) 8:05 PM CDT (5/9)
Length of Visible Light 14h 35m
Length of Day
13h 42m
Waning Crescent, 0% of the Moon is Illuminated
May 9
Waning Crescent
May 9
New
May 17
First Quarter
May 24
Full
May 31
Last Quarter

Hourly Weather History & Observations

Time (CDT) Temp. Dew Point Humidity Pressure Visibility Wind Dir Wind Speed Gust Speed Precip Events Conditions
12:35 AM 71.6 °F 57.2 °F 60% 29.96 in 10.0 mi SSE 6.9 mph - N/A   Clear
1:35 AM 71.6 °F 57.2 °F 60% 29.96 in 10.0 mi SSE 5.8 mph - N/A   Clear
2:15 AM 69.8 °F 59.0 °F 68% 29.95 in 10.0 mi South 6.9 mph - N/A   Clear
2:55 AM 68.0 °F 60.8 °F 78% 29.96 in 10.0 mi South 6.9 mph - N/A   Clear
5:15 AM 64.4 °F 62.6 °F 94% 29.96 in 10.0 mi SSE 3.5 mph - N/A   Clear
5:55 AM 64.4 °F 62.6 °F 94% 29.95 in 10.0 mi SSE 3.5 mph - N/A   Partly Cloudy
6:35 AM 66.2 °F 62.6 °F 88% 29.98 in 10.0 mi SSE 3.5 mph - N/A   Overcast
8:15 AM 66.2 °F 64.4 °F 94% 30.00 in 4.0 mi Calm Calm - N/A   Overcast
8:35 AM 66.2 °F 64.4 °F 94% 30.00 in 2.0 mi SE 3.5 mph - N/A   Overcast
9:15 AM 66.2 °F 66.2 °F 100% 30.01 in 1.8 mi Calm Calm - N/A   Overcast
9:55 AM 66.2 °F 66.2 °F 100% 30.02 in 5.0 mi SE 4.6 mph - N/A   Overcast
10:15 AM 66.2 °F 66.2 °F 100% 30.01 in 5.0 mi SE 3.5 mph - N/A   Overcast
10:35 AM 68.0 °F 66.2 °F 94% 30.01 in 9.0 mi SE 8.1 mph - N/A   Overcast
10:55 AM 69.8 °F 66.2 °F 88% 30.01 in 9.0 mi SE 6.9 mph - N/A   Overcast
11:15 AM 69.8 °F 68.0 °F 94% 30.02 in 9.0 mi SE 5.8 mph - N/A   Overcast
11:35 AM 71.6 °F 68.0 °F 88% 30.02 in 9.0 mi SSE 4.6 mph - N/A   Overcast
11:55 AM 71.6 °F 68.0 °F 88% 30.01 in 9.0 mi South 5.8 mph - N/A   Overcast
12:15 PM 71.6 °F 66.2 °F 83% 30.01 in 9.0 mi South 10.4 mph - N/A   Overcast
12:35 PM 73.4 °F 68.0 °F 83% 29.99 in 9.0 mi South 8.1 mph - N/A   Overcast
12:55 PM 73.4 °F 68.0 °F 83% 30.00 in 9.0 mi South 9.2 mph - N/A   Overcast
1:15 PM 73.4 °F 68.0 °F 83% 29.99 in 9.0 mi South 5.8 mph - N/A   Overcast
1:35 PM 73.4 °F 68.0 °F 83% 29.98 in 9.0 mi South 9.2 mph - N/A   Overcast
1:55 PM 73.4 °F 68.0 °F 83% 29.99 in 9.0 mi South 8.1 mph - N/A   Mostly Cloudy
2:35 PM 73.4 °F 69.8 °F 88% 29.98 in 9.0 mi Calm Calm - N/A   Partly Cloudy
3:15 PM 73.4 °F 69.8 °F 88% 29.99 in 6.0 mi South 3.5 mph - N/A   Scattered Clouds
3:35 PM 73.4 °F 69.8 °F 88% 29.98 in 7.0 mi SSW 3.5 mph - N/A   Partly Cloudy
3:55 PM 73.4 °F 69.8 °F 88% 29.97 in 5.0 mi Calm Calm - N/A   Light Drizzle
4:15 PM 71.6 °F 69.8 °F 94% 29.96 in 5.0 mi Calm Calm - N/A   Mostly Cloudy
4:35 PM 71.6 °F 69.8 °F 94% 29.97 in 5.0 mi Calm Calm - N/A Thunderstorm Light Drizzle
4:55 PM 71.6 °F 69.8 °F 94% 29.97 in 4.0 mi Calm Calm - N/A Rain Rain
5:15 PM 71.6 °F 69.8 °F 94% 29.96 in 2.5 mi Calm Calm - 0.01 in Rain Rain
5:35 PM 71.6 °F 69.8 °F 94% 29.96 in 2.5 mi Calm Calm - 0.01 in Rain , Thunderstorm Rain
5:55 PM 69.8 °F 69.8 °F 100% 29.88 in 1.5 mi SE 13.8 mph 19.6 mph 0.05 in Rain , Thunderstorm Thunderstorms and Rain
6:15 PM 69.8 °F 69.8 °F 100% 29.82 in 2.5 mi SE 12.7 mph 19.6 mph N/A   Light Drizzle
6:35 PM 69.8 °F 69.8 °F 100% 29.82 in 4.0 mi SE 10.4 mph 19.6 mph N/A   Mostly Cloudy
6:55 PM 69.8 °F 69.8 °F 100% 29.85 in 5.0 mi ESE 6.9 mph 16.1 mph N/A   Partly Cloudy
7:15 PM 71.6 °F 69.8 °F 94% 29.88 in 5.0 mi North 3.5 mph - N/A Thunderstorm Scattered Clouds
7:35 PM 71.6 °F 69.8 °F 94% 29.90 in 5.0 mi Calm Calm - N/A   Overcast
7:55 PM 71.6 °F 69.8 °F 94% 29.88 in 6.0 mi Calm Calm - N/A   Overcast
8:15 PM 71.6 °F 69.8 °F 94% 29.89 in 5.0 mi Calm Calm - N/A   Overcast
8:35 PM 71.6 °F 69.8 °F 94% 29.90 in 5.0 mi Calm Calm - N/A   Overcast
8:55 PM 69.8 °F 69.8 °F 100% 29.90 in 3.0 mi Calm Calm - N/A   Overcast
9:15 PM 69.8 °F 69.8 °F 100% 29.90 in 1.5 mi Calm Calm - N/A   Overcast
9:35 PM 69.8 °F 69.8 °F 100% 29.91 in 2.5 mi Calm Calm - N/A   Mostly Cloudy
9:55 PM 68.0 °F 68.0 °F 100% 29.91 in 1.8 mi Calm Calm - N/A   Scattered Clouds
10:15 PM 68.0 °F 68.0 °F 100% 29.93 in 4.0 mi Calm Calm - N/A   Clear
10:55 PM 66.2 °F 66.2 °F 100% 29.93 in 1.8 mi Calm Calm - N/A   Mostly Cloudy
11:35 PM 66.2 °F 66.2 °F 100% 29.94 in 8.0 mi Calm Calm - N/A   Overcast